Home > Weather > Umm al-Quwain > Past weeks

Flag for United Arab Emirates Past Weather in Umm al-Quwain, Umm al-Quwain, United Arab Emirates — Yesterday and Last 2 Weeks

Now
90 °F

Clear.


Feels Like: 100 °F
Forecast: 89 / 96 °F
Wind: 2 mph from Northeast

Location: Sharjah International Airport

Current Time: Jul 30, 2016 at 1:56:24 AM

Latest Report: Jul 30, 2016 at 1:00 AM


Visibility: 10 mi

Pressure: 29.50 "Hg

Humidity: 63%

Dew Point: 75 °F

Location of Umm al-QuwainLocation

Past Weather in Umm al-Quwain — Graph

°F

Umm al-Quwain Temperature Yesterday

Maximum temperature yesterday: 100 °F (at 12:00 PM)
Minimum temperature yesterday: 88 °F (at 2:00 AM)
Average temperature yesterday: 93 °F

High & Low Weather Summary for the Past Weeks

 TemperatureHumidityPressure
High115 °F (Jul 15, 12:00 PM)84% (Jul 15, 5:00 AM)29.62 "Hg (Jul 15, 5:00 AM)
Low88 °F (Jul 23, 6:00 AM)14% (Jul 23, 11:00 AM)29.36 "Hg (Jul 16, 4:00 PM)
Average99 °F45%29.48 "Hg
* Reported Jul 15 1:00 AM — Jul 30 1:00 AM, Umm al-Quwain, Weather by CustomWeather, © 2016

Note: Actual official high and low records may vary slightly from our data, if they occured in-between our weather recording intervals... More about our weather records

Advertising

Umm al-Quwain Weather History for the Previous 24 Hours

Scroll right to see more
 ConditionsComfort  
Time TempWeatherWind HumidityBarometerVisibility
1:00 AM
Sat, Jul 30
90 °FClear.2 mph63%29.50 "Hg10 mi
12:00 AM91 °FClear.2 mph59%29.53 "Hg10 mi
11:00 PM
Fri, Jul 29
91 °FClear.1 mph59%29.53 "Hg10 mi
10:00 PM93 °FClear.5 mph53%29.56 "Hg10 mi
9:00 PM93 °FClear.3 mph56%29.53 "Hg10 mi
8:00 PM93 °FClear.6 mph56%29.53 "Hg10 mi
7:00 PM93 °FSunny.8 mph56%29.50 "Hg10 mi
6:00 PM97 °FSunny.10 mph50%29.50 "Hg10 mi
5:00 PM99 °FSunny.12 mph44%29.50 "Hg10 mi
4:00 PM99 °FSunny.13 mph44%29.50 "Hg10 mi
3:00 PM99 °FSunny.15 mph44%29.50 "Hg10 mi
2:00 PM100 °FSunny.15 mph40%29.53 "Hg10 mi
1:00 PM100 °FSunny.8 mph40%29.56 "Hg10 mi
12:00 PM100 °FSunny.6 mph40%29.56 "Hg10 mi
11:00 AM99 °FSunny.3 mph42%29.59 "Hg10 mi
10:00 AM95 °FSunny.7 mph47%29.62 "Hg10 mi
9:00 AM93 °FSunny.9 mph49%29.62 "Hg10 mi
8:00 AM91 °FSunny.8 mph56%29.62 "Hg10 mi
7:00 AM88 °FSunny.7 mph62%29.59 "Hg10 mi
6:00 AM88 °FSunny.6 mph62%29.56 "Hg10 mi
5:00 AM88 °FClear.10 mph62%29.56 "Hg10 mi
4:00 AM88 °FClear.12 mph62%29.53 "Hg10 mi
3:00 AM88 °FClear.14 mph59%29.53 "Hg10 mi
2:00 AM88 °FClear.13 mph59%29.53 "Hg10 mi
1:00 AM90 °FClear.15 mph59%29.53 "Hg10 mi
Weather by CustomWeather, © 2016

See weather overviewHow to use our weather pages